Temp
26 22 22 25 27 27 26 26 24 25 27 28 26 24 24 24 22 22 21 21 21 21 21 20 21 22 21 21 21 19 20 21 21 20 20 19 19 18 18 17 18 18 18 17
25 23 26 26 28 26 27 25 24 25 27 27 26 25 23 24 23 21 22 21 20 20 20 20 19 20 19 20 19 19 18 19 19 18 18 18 18 18 19 18 18 16 15 15
22 25 27 27 24 24 24 23 24 25 25 25 26 24 23 23 23 23 22 21 20 20 19 19 18 19 19 19 19 19 19 19 18 18 19 18 18 17 17 16 15 15 14 14
24 27 26 26 24 24 23 24 24 24 23 22 24 21 22 22 22 22 21 19 19 19 19 18 18 18 18 18 18 18 18 19 18 17 17 16 15 14 14 14 14 13 12 13
25 23 23 24 24 24 24 25 24 24 23 23 23 20 23 23 21 21 20 19 18 17 17 16 18 18 18 18 18 18 18 17 17 17 16 15 15 14 14 13 12 12 12 12
24 24 24 24 25 25 25 24 23 23 22 18 22 21 20 20 21 21 20 20 19 17 17 18 18 18 18 18 18 18 18 18 17 17 15 15 15 14 12 12 12 11 11 11
24 24 24 25 23 24 23 21 16 17 15 17 22 22 18 21 22 21 19 18 18 17 17 16 17 18 18 18 18 18 18 18 17 16 15 15 14 12 11 11 10 10 10 10
21 19 22 23 23 23 22 22 16 19 14 18 22 20 19 21 20 20 20 19 18 18 17 17 19 18 19 19 19 18 18 17 17 16 14 13 12 11 11 10 10 10 10 10
21 21 23 23 24 23 23 19 23 17 16 15 19 20 21 21 21 21 21 22 18 17 16 18 19 19 17 17 17 17 17 16 15 14 13 12 11 10 9 9 10 10 8 8
22 21 23 24 24 24 22 23 18 15 17 16 18 20 18 20 20 21 19 18 17 17 17 16 16 16 16 15 15 15 14 13 12 12 11 11 10 9 9 9 8 7 7 7
20 20 21 23 21 21 21 21 21 20 15 14 13 17 20 19 19 18 18 17 16 15 14 14 15 15 15 14 14 14 13 13 13 12 12 11 11 10 9 9 8 7 7 6
21 17 14 21 23 23 23 22 20 13 17 12 11 14 19 18 19 18 18 17 16 15 14 14 15 15 14 13 13 13 13 13 12 12 11 10 10 10 9 8 7 7 6 6
19 17 14 18 20 21 22 22 19 16 12 15 11 13 19 19 19 19 16 16 15 14 13 12 13 14 13 13 13 13 13 12 12 12 11 10 9 9 8 7 7 6 5 5
17 19 16 14 19 19 21 21 21 17 11 14 13 17 19 17 17 15 15 14 13 13 12 12 12 12 13 13 13 12 12 12 12 11 10 9 9 8 7 6 5 5 5 5
17 15 16 17 18 19 20 20 20 20 17 14 16 18 16 15 15 15 14 14 13 12 12 11 11 12 12 12 11 11 11 11 10 9 9 10 9 7 5 3 4 3 4 5
15 12 13 16 17 17 17 17 17 18 19 19 19 16 16 15 15 14 13 12 12 12 11 11 11 12 12 11 11 10 9 9 9 8 8 9 7 5 4 3 3 4 5 5
11 8 10 12 13 11 12 17 18 20 20 20 16 16 14 13 13 11 11 11 11 10 10 10 11 11 11 11 9 9 8 8 8 7 7 6 5 4 3 2 4 4 4 4
9 10 8 8 9 12 17 19 19 18 17 17 16 14 13 12 12 10 10 10 10 11 10 10 11 11 11 9 9 8 8 7 7 6 5 5 5 3 3 3 4 4 4 4
12 7 7 9 9 13 16 19 17 16 15 15 13 12 12 13 13 11 11 11 11 11 11 11 11 11 10 9 8 8 7 7 6 5 5 4 4 4 3 2 4 4 4 4
11 7 8 7 8 9 13 18 17 17 12 13 12 11 11 11 6 9 10 11 11 12 12 11 11 10 9 8 8 7 7 6 5 4 4 4 3 3 3 2 4 4 4 3
7 7 7 9 7 10 14 18 17 12 12 11 11 11 11 10 7 9 10 11 12 12 12 12 11 9 9 8 8 7 6 6 5 4 3 3 3 3 3 3 3 3 3 1
9 8 10 9 9 9 15 17 13 11 12 10 11 11 11 11 10 10 11 11 12 11 11 11 10 9 9 8 7 6 5 5 4 3 3 3 3 3 3 3 3 3 1 1
13 11 10 10 10 12 15 14 11 11 10 10 10 11 11 10 11 11 10 10 11 11 10 9 9 9 8 7 6 6 4 4 3 3 2 2 2 3 3 3 2 2 1 -0
15 16 10 12 16 17 13 12 12 11 10 10 10 11 11 11 11 11 9 9 9 8 8 8 8 7 6 6 6 5 4 3 3 2 1 1 2 2 2 2 1 1 -0 -1
12 15 15 12 15 14 12 11 11 11 11 11 12 12 12 12 10 9 7 7 7 7 7 7 6 5 5 6 5 4 4 3 2 1 1 1 1 1 1 1 0 -1 -1 -2
14 13 10 10 13 12 11 11 11 11 11 12 11 11 11 9 7 7 7 7 6 6 6 5 5 4 4 4 3 3 3 3 2 1 0 0 0 0 0 -0 -1 -2 -2 -2
Height
774 798 810 794 786 785 786 792 801 796 784 790 795 806 801 794 797 801 807 809 812 812 817 817 818 817 818 823 826 831 834 837 840 839 838 841 843 844 845 845 845 843 842 840
789 807 788 782 780 786 785 796 807 794 784 791 796 806 802 798 806 807 811 816 817 818 819 822 823 825 827 831 832 834 835 836 840 841 842 842 844 844 843 843 843 843 841 838
802 794 781 783 794 799 798 806 807 806 796 791 797 817 811 806 806 807 813 817 819 822 826 829 832 834 834 834 836 837 838 840 841 843 843 843 845 845 844 844 843 842 839 835
795 784 787 789 799 800 810 798 800 803 812 830 801 847 821 814 818 818 820 824 828 830 833 835 836 839 840 842 841 841 842 843 844 844 843 845 846 846 845 843 842 841 839 836
800 799 800 802 802 797 808 794 800 802 813 814 812 835 827 814 830 827 827 828 831 834 837 840 841 843 845 845 844 844 844 844 844 844 845 845 846 844 843 842 841 840 838 837
794 788 796 800 793 791 792 799 802 804 816 853 818 826 839 836 829 829 828 830 833 835 837 839 842 845 846 846 845 845 845 844 843 843 842 843 842 842 841 840 838 838 837 836
801 802 795 792 803 795 801 814 854 856 868 864 813 824 846 829 823 825 832 835 835 837 838 839 842 843 845 846 845 844 843 842 841 840 841 841 841 841 840 841 841 838 835 835
819 839 809 801 806 812 811 814 859 858 884 855 819 844 850 827 826 827 829 830 832 834 837 839 840 843 843 843 843 842 841 840 840 840 839 840 841 841 841 838 840 838 835 833
821 826 806 803 800 805 812 836 813 849 855 867 847 841 831 826 829 828 829 827 834 834 836 838 839 844 847 847 845 843 841 841 838 839 839 840 840 840 839 839 837 834 833 831
810 830 811 806 802 802 811 808 846 856 869 876 855 845 852 838 836 831 836 838 836 836 837 840 843 847 847 846 845 844 844 844 844 842 841 841 839 836 836 837 834 831 831 831
813 822 824 810 823 827 824 826 827 835 863 884 891 864 830 838 837 839 838 841 843 844 844 846 847 846 847 847 846 847 846 845 843 841 839 837 835 833 833 831 827 826 827 827
815 831 857 829 814 810 813 823 832 876 864 880 891 875 833 834 834 837 840 841 840 842 845 846 847 847 846 847 844 846 844 843 841 839 837 836 833 831 826 824 822 821 822 824
821 838 865 846 832 820 821 820 831 847 869 870 896 877 829 829 828 830 842 843 844 845 848 850 849 847 847 845 846 846 844 842 840 837 834 832 830 828 828 824 823 821 820 822
820 826 847 868 841 833 832 825 825 841 877 866 870 848 834 837 842 846 847 846 847 849 851 852 851 850 848 847 847 846 845 842 839 836 831 827 824 824 822 820 821 823 820 820
825 847 844 837 833 830 828 829 829 831 840 858 847 839 846 846 846 846 847 848 850 852 852 853 852 848 847 847 847 846 844 842 838 834 832 825 820 820 819 818 816 817 815 814
834 858 855 847 837 840 842 838 835 831 827 828 827 841 838 840 841 845 849 851 854 855 852 851 849 848 847 846 845 844 843 841 838 834 830 824 819 817 816 817 813 810 807 810
853 870 870 865 857 861 864 837 830 822 821 822 840 839 844 845 846 852 854 853 854 853 852 851 849 847 846 845 844 843 842 839 835 831 828 825 822 818 816 813 816 812 808 805
862 862 879 883 876 875 834 819 819 825 828 829 835 843 844 846 849 851 852 852 852 851 850 848 848 847 846 844 843 841 838 835 832 830 827 824 819 815 812 810 812 808 806 803
843 869 888 883 885 856 832 821 827 832 841 836 841 844 845 845 846 852 850 849 849 848 847 846 846 844 843 841 840 838 835 833 830 827 824 821 818 814 811 811 807 805 802 801
850 864 873 891 893 890 842 823 820 823 854 841 842 846 847 847 867 854 847 846 846 845 844 843 842 841 839 839 837 834 832 830 827 825 822 819 815 812 809 806 803 802 800 798
878 878 885 878 894 864 831 820 819 853 850 840 842 844 845 850 855 848 845 845 843 842 841 840 838 838 837 834 831 829 828 826 823 821 818 815 812 808 805 802 801 799 797 796
861 874 866 870 874 869 819 819 837 834 832 837 839 840 841 843 844 843 842 841 840 839 838 837 836 835 832 830 828 826 824 823 820 817 814 811 808 805 802 801 798 796 794 794
840 838 849 849 846 821 813 817 822 824 830 834 837 836 837 839 839 840 839 839 839 838 837 836 834 831 829 827 825 823 821 818 816 813 810 808 805 803 801 799 796 795 793 793
814 810 832 828 813 808 813 815 817 822 826 830 833 833 834 836 836 836 838 838 838 838 836 834 832 829 827 824 821 818 816 813 811 809 808 805 803 801 799 797 795 794 793 792
821 809 813 820 810 812 816 816 819 822 825 827 827 829 832 833 835 838 839 838 838 837 835 833 830 827 824 821 817 815 812 808 806 806 805 803 802 799 797 795 794 793 792 791
808 812 826 824 807 811 816 817 818 820 821 822 825 828 830 833 836 837 838 838 836 834 833 830 828 825 821 817 813 811 807 804 802 802 802 801 799 798 796 795 794 793 792 790
Wind_Speed
6 6 3 3 3 4 5 5 12 5 5 2 4 6 8 13 10 15 15 19 17 17 20 30 37 33 37 29 27 24 21 11 17 14 13 11 9 8 8 9 5 6 10 11
4 5 3 5 2 4 4 6 6 3 4 3 1 5 9 14 10 11 17 16 15 14 16 24 34 35 33 31 28 26 24 24 20 16 15 11 7 4 3 6 6 9 12 19
7 2 4 3 8 9 7 5 5 3 6 6 2 3 9 9 14 18 15 11 11 13 14 14 23 29 29 28 25 22 19 17 15 9 5 2 2 4 8 11 14 19 13 12
7 1 3 5 7 6 4 6 5 6 3 3 5 2 6 14 15 15 15 15 15 15 12 14 19 22 23 21 18 16 12 10 7 7 6 8 9 10 13 15 11 11 11 12
2 7 8 8 4 5 3 0 3 3 4 3 7 5 1 14 12 10 8 10 11 10 11 9 18 17 14 12 12 10 7 8 9 10 4 2 6 8 4 10 5 7 13 18
4 5 4 5 5 3 5 4 5 3 2 2 6 5 2 5 8 5 9 9 8 9 9 16 20 14 8 5 4 5 6 4 9 11 6 6 8 5 3 3 5 11 17 16
5 4 3 3 4 1 4 5 3 4 4 3 5 6 2 6 6 8 10 9 9 9 8 9 14 15 9 4 3 2 2 6 6 4 9 5 4 6 6 8 12 16 14 16
5 4 6 7 5 2 5 4 4 1 1 4 8 4 2 11 10 9 8 9 9 8 7 7 9 7 5 4 8 4 6 8 7 7 8 11 12 10 10 14 17 13 15 7
3 3 3 6 4 3 4 5 2 5 4 3 2 4 4 9 8 8 7 3 8 8 8 6 9 8 18 14 13 12 8 6 11 11 9 8 11 12 18 17 14 12 9 12
5 4 3 2 2 4 5 2 6 4 2 2 1 2 3 3 4 7 6 7 7 6 8 9 19 17 17 22 22 20 19 18 14 12 11 13 12 14 11 8 8 10 14 18
5 3 2 2 5 4 5 3 4 3 4 4 1 4 4 7 7 7 8 9 10 10 8 7 12 15 18 20 20 20 19 17 14 14 16 13 13 8 3 4 5 8 12 17
3 4 3 3 3 2 2 3 4 4 3 1 4 5 3 8 10 8 11 8 7 8 7 9 16 19 19 19 25 22 20 13 10 16 13 13 13 9 10 8 5 6 7 8
3 2 3 5 4 4 2 3 5 6 3 3 4 5 3 6 7 7 8 7 8 8 9 10 17 17 18 20 21 19 23 18 25 21 16 13 13 12 15 6 4 3 5 8
3 3 5 5 3 1 3 4 3 6 4 4 6 6 5 8 7 7 7 7 8 9 8 7 11 15 17 16 18 22 25 27 31 28 16 18 20 20 5 2 4 8 10 12
3 3 5 4 6 5 4 5 6 4 6 6 9 8 13 6 8 6 6 8 9 7 7 7 6 13 14 17 20 23 24 28 30 32 31 29 25 8 4 1 2 11 13 9
5 1 2 3 7 9 5 8 8 7 7 6 3 7 9 6 7 7 9 10 8 8 8 7 10 11 12 16 19 21 24 27 30 31 32 35 15 5 7 11 15 13 4 8
4 4 3 2 4 5 5 4 3 2 2 2 1 5 8 10 10 8 8 7 6 5 6 6 10 10 13 16 18 21 22 25 28 31 30 22 14 13 9 7 20 8 9 11
5 4 3 2 3 2 5 4 3 6 6 7 13 11 10 7 7 8 6 5 4 3 5 9 9 13 12 13 18 19 21 24 26 24 26 22 17 13 9 9 11 7 11 15
5 4 3 2 1 5 7 2 3 4 4 9 10 8 7 5 4 4 5 3 2 4 6 7 11 8 11 15 19 18 19 21 23 19 19 17 13 13 11 16 14 13 12 11
6 5 4 2 4 6 7 4 6 4 2 4 7 6 4 2 2 3 6 6 4 9 10 10 11 11 11 14 16 14 16 19 15 16 16 19 19 17 17 17 22 14 11 13
3 3 4 4 3 7 8 2 5 5 6 5 5 4 1 1 4 5 8 3 8 11 9 13 10 6 11 17 14 13 16 17 14 15 17 18 21 22 24 23 5 13 13 6
7 6 4 2 2 7 6 2 7 5 4 6 5 5 3 3 5 5 2 5 11 9 12 12 9 12 18 13 13 16 15 14 14 16 16 18 17 18 9 12 16 15 6 7
2 7 6 8 6 7 6 6 5 6 6 5 4 2 2 5 3 2 4 6 8 12 15 14 19 19 14 14 18 15 9 12 17 20 16 16 17 14 16 14 11 6 6 9
3 5 3 4 4 4 7 4 5 5 6 6 6 6 4 4 1 4 4 7 12 16 18 19 19 16 17 22 19 10 13 14 16 11 14 16 17 17 16 12 9 6 10 11
5 3 1 3 3 5 5 6 6 6 5 7 6 4 4 1 5 6 5 10 12 14 17 19 19 19 23 24 18 19 22 15 10 10 13 13 15 17 17 11 6 10 10 9
4 5 3 6 4 4 4 7 7 6 7 7 6 4 8 14 7 11 8 12 16 18 21 20 22 24 25 21 22 26 25 13 9 10 9 11 13 15 12 8 9 12 15 14
Wind_Direction
261 75 116 92 10 302 340 348 104 108 114 122 234 121 97 61 59 77 85 80 79 72 64 61 59 70 80 110 101 116 124 128 168 117 108 83 74 60 68 64 42 339 320 309
36 84 11 297 82 344 324 4 32 102 124 119 307 150 103 81 65 85 93 83 83 79 72 61 58 64 77 91 94 94 90 86 88 87 81 73 68 46 313 306 321 356 336 329
99 133 268 348 49 19 49 73 19 31 341 342 11 34 102 88 86 77 72 84 86 90 82 72 66 65 71 73 74 72 75 84 89 72 66 74 7 353 356 344 333 331 354 14
93 236 321 63 54 30 65 9 360 329 19 236 126 72 124 108 95 85 78 72 72 79 78 77 73 64 62 68 71 69 66 72 66 36 32 39 29 7 334 343 359 350 40 21
58 53 35 55 42 18 150 270 280 310 303 1 316 83 72 109 92 96 88 93 96 102 101 96 92 86 75 63 61 60 48 16 341 344 4 337 309 316 5 337 68 17 1 357
102 87 48 355 307 239 281 285 260 252 156 33 286 116 289 99 140 113 110 103 95 104 122 124 115 113 117 100 55 47 59 349 307 312 269 279 303 311 68 69 1 356 351 348
106 86 146 353 314 34 0 31 2 7 17 212 315 62 296 114 141 119 106 99 103 108 111 125 138 149 150 148 230 210 292 316 338 286 226 252 162 121 92 36 1 352 351 340
132 7 5 343 63 359 307 84 125 80 45 299 334 87 124 98 94 100 126 151 145 139 124 118 119 103 164 202 284 211 284 287 313 295 138 111 87 64 21 360 337 330 317 344
83 87 66 39 339 35 350 45 183 107 326 47 130 78 72 121 118 136 151 169 165 152 134 106 89 56 45 48 41 41 18 43 92 104 104 64 13 7 345 321 313 320 35 21
13 99 348 135 328 350 111 214 44 2 89 328 77 137 203 130 122 77 75 67 62 79 81 60 76 77 61 53 53 44 46 40 42 41 19 356 338 346 331 314 65 25 5 353
19 78 279 23 33 27 3 14 46 95 112 148 348 295 174 98 115 90 80 73 81 79 79 81 73 66 53 48 35 14 359 345 334 338 333 316 316 333 344 292 330 335 340 345
17 118 66 115 94 344 306 68 85 106 322 79 136 281 110 92 68 66 80 85 82 74 78 68 52 42 43 27 18 4 358 352 327 315 309 310 309 274 253 252 303 327 343 334
348 30 49 10 3 334 341 91 112 111 102 187 129 261 215 83 80 110 97 76 70 70 56 40 25 24 19 22 7 11 357 351 340 323 307 304 299 296 294 296 342 11 6 329
55 73 142 173 211 219 346 317 172 133 117 204 201 250 317 84 44 66 55 48 71 68 51 29 15 19 12 20 18 14 357 351 347 329 298 299 292 278 248 16 6 335 346 316
73 93 17 329 324 319 302 317 322 290 220 154 240 228 108 128 112 91 75 70 62 51 40 30 354 359 17 28 13 1 357 351 352 351 337 311 298 284 311 122 18 307 297 308
24 133 17 319 18 13 323 308 300 297 298 305 25 93 119 108 73 65 57 60 50 32 28 5 345 1 23 14 358 7 6 354 350 346 338 329 298 288 275 252 275 270 317 317
67 124 79 256 355 350 3 254 248 259 15 138 256 91 82 52 49 78 71 55 50 28 4 331 321 9 10 5 25 11 358 353 352 350 349 8 351 345 313 303 288 299 311 329
126 94 87 216 12 47 237 326 41 107 50 42 82 78 72 63 87 91 77 71 35 348 298 311 346 3 18 27 12 2 0 354 348 344 347 350 333 339 316 310 264 306 311 314
86 109 77 115 199 296 323 72 86 87 20 63 87 68 60 29 109 124 124 120 267 279 312 339 359 16 28 16 2 356 351 348 344 351 346 343 332 325 329 314 309 313 314 330
44 80 106 80 137 208 227 69 77 70 250 75 91 71 30 59 84 265 326 324 322 337 329 353 2 12 16 357 344 342 345 343 345 344 333 326 322 316 306 287 296 303 351 334
46 349 143 177 209 284 251 228 117 100 228 140 120 116 95 101 192 239 285 301 338 320 342 341 356 15 354 341 334 347 341 339 330 329 328 320 320 310 303 301 335 344 339 92
165 155 195 192 209 273 218 115 151 192 137 153 155 173 172 257 269 269 333 340 316 321 339 352 12 355 338 344 1 347 337 337 337 337 330 326 332 338 350 340 338 340 84 43
188 184 181 176 212 222 202 174 127 143 150 167 161 149 267 261 270 20 323 307 344 352 347 15 354 339 347 359 349 329 335 329 331 332 331 335 344 341 334 337 356 55 30 20
267 173 189 100 245 241 157 96 117 126 134 160 185 201 242 279 256 327 350 11 17 24 1 350 349 349 348 340 335 324 325 320 333 331 332 335 346 347 341 346 8 35 23 13
212 353 196 257 293 99 58 134 135 130 172 211 166 230 213 170 38 55 44 25 21 358 353 354 352 343 332 327 336 335 324 302 309 306 321 331 335 346 340 342 42 30 20 8
207 200 168 240 215 159 160 156 159 183 208 197 188 111 61 73 70 56 35 22 3 353 349 345 337 328 324 327 328 334 322 279 274 300 313 330 334 339 8 38 23 9 1 353